Prague, Czech Republic

9:19 AM CEST on July 26, 2017 (GMT +0200)
Ruzyne

Weather History for LKPR - November, 2014

Change the Weather History Date:

Saturday, November 1, 2014

  Actual Average Record
Temperature  
Mean Temperature 50 °F -  
Max Temperature 59 °F 43 °F 59 °F (2014)
Min Temperature 42 °F 32 °F 26 °F (1997)
Degree Days  
Heating Degree Days 14    
Moisture  
Dew Point 46 °F    
Average Humidity 91    
Maximum Humidity 100    
Minimum Humidity 62    
Precipitation  
Precipitation 0.00 in 0.04 in - ()
Sea Level Pressure  
Sea Level Pressure 30.23 in    
Wind  
Wind Speed 4 mph ()    
Max Wind Speed 7 mph    
Max Gust Speed -    
Visibility 3.3 miles    
Events Fog    
Averages and records for this station are not official NWS values.
T = Trace of Precipitation, MM = Missing Value Source: Averaged Metar Reports

Daily Weather History Graph

Daily Weather History Graph

Search for Another Location

Airport or City:

Trip Planner

Search our weather history database for the weather conditions in past years. The results will help you decide how hot, cold, wet, or windy it might be!

Date:

Astronomy

Nov. 01, 2014 Rise Set
Actual Time 6:52 AM CET 4:39 PM CET
Civil Twilight 6:18 AM CET 5:13 PM CET
Nautical Twilight 5:40 AM CET 5:52 PM CET
Astronomical Twilight 5:02 AM CET 6:29 PM CET
Moon 1:56 PM CET (11/1) No Moon Set
Length of Visible Light 10h 55m
Length of Day
9h 47m
Waxing Gibbous, 65% of the Moon is Illuminated
Nov 1
Waxing Gibbous
Nov 6
Full
Nov 14
Last Quarter
Nov 22
New
Nov 29
First Quarter

Hourly Weather History & Observations

Time (CET) Temp. Windchill Dew Point Humidity Pressure Visibility Wind Dir Wind Speed Gust Speed Precip Events Conditions
12:00 AM 47 °F - 46 °F 95% 30.31 in 6 mi SSW 6.7 mph - -   Mostly Cloudy
12:00 AM 46.4 °F 43.5 °F 46.4 °F 100% 30.27 in - SSW 5.8 mph - N/A   Clear
12:30 AM 48.2 °F - 46.4 °F 93% 30.27 in - SSW 6.9 mph - N/A   Clear
1:00 AM 47 °F - 46 °F 95% 30.30 in 6 mi SW 6.7 mph - -   Mostly Cloudy
1:00 AM 46.4 °F 43.5 °F 46.4 °F 100% 30.27 in - SSW 5.8 mph - N/A   Clear
1:30 AM 46.4 °F - 44.6 °F 93% 30.27 in 5.6 mi Variable 2.3 mph - N/A   Unknown
2:00 AM 46 °F - 45 °F 95% 30.30 in 5 mi SSW 2.2 mph - - Fog Patches of Fog
2:00 AM 46.4 °F 45.2 °F 44.6 °F 93% 30.27 in 5.0 mi WSW 3.5 mph - N/A Fog Shallow Fog
2:30 AM 46.4 °F - 44.6 °F 93% 30.27 in 5.0 mi SSW 2.3 mph - N/A Fog Fog
3:00 AM 46 °F - 45 °F 96% 30.29 in 5 mi South 2.2 mph - - Fog Patches of Fog
3:00 AM 46.4 °F - 44.6 °F 93% 30.24 in 5.0 mi Variable 2.3 mph - N/A Fog Fog
3:30 AM 46.4 °F 44.3 °F 44.6 °F 93% 30.24 in 5.0 mi South 4.6 mph - N/A   Unknown
4:00 AM 46 °F - 45 °F 96% 30.27 in 5 mi SSW 6.7 mph - -   Mist
4:00 AM 46.4 °F 44.3 °F 44.6 °F 93% 30.24 in 5.0 mi South 4.6 mph - N/A   Unknown
4:30 AM 46.4 °F 44.3 °F 44.6 °F 93% 30.24 in 5.6 mi SSW 4.6 mph - N/A   Unknown
5:00 AM 46 °F - 45 °F 94% 30.27 in 5 mi SSW 4.5 mph - -   Mist
5:00 AM 46.4 °F 44.3 °F 44.6 °F 93% 30.24 in 5.6 mi SSW 4.6 mph - N/A   Unknown
5:30 AM 44.6 °F 43.1 °F 42.8 °F 93% 30.24 in 5.0 mi SSW 3.5 mph - N/A   Unknown
6:00 AM 44 °F - 44 °F 98% 30.28 in 3 mi WSW 2.2 mph - - Fog Patches of Fog
6:00 AM 44.6 °F - 42.8 °F 93% 30.24 in 3.1 mi SSW 2.3 mph - N/A   Mist
6:12 AM 44.6 °F - 42.8 °F 93% 30.24 in 3.1 mi Variable 1.2 mph - N/A Fog Mist
6:30 AM 44.6 °F - 44.6 °F 100% 30.24 in 2.2 mi South 2.3 mph - N/A Fog Mist
7:00 AM 44 °F - 44 °F 97% 30.28 in 2 mi South 4.5 mph - - Fog Patches of Fog
7:00 AM 44.6 °F - 44.6 °F 100% 30.24 in 2.2 mi South 2.3 mph - N/A Fog Mist
7:30 AM 46.4 °F 44.3 °F 44.6 °F 93% 30.24 in 2.5 mi SSW 4.6 mph - N/A   Mist
8:00 AM 46 °F - 46 °F 97% 30.27 in 2 mi SSW 4.5 mph - -   Mist
8:00 AM 46.4 °F 42.9 °F 44.6 °F 93% 30.24 in 2.5 mi SSW 6.9 mph - N/A   Mist
8:30 AM 48.2 °F - 46.4 °F 93% 30.24 in 3.1 mi SSW 4.6 mph - N/A   Mist
9:00 AM 48 °F - 47 °F 97% 30.27 in 4 mi WSW 4.5 mph - -   Mist
9:00 AM 48.2 °F - 48.2 °F 100% 30.24 in 3.7 mi SW 4.6 mph - N/A   Unknown
9:30 AM 50.0 °F - 48.2 °F 94% 30.24 in 4.3 mi SW 3.5 mph - N/A   Unknown
10:00 AM 50 °F - 47 °F 88% 30.27 in 5 mi West 4.5 mph - -   Mist
10:00 AM 50.0 °F - 48.2 °F 94% 30.24 in 5.0 mi SSW 4.6 mph - N/A   Unknown
10:30 AM 50.0 °F - 48.2 °F 94% 30.24 in 5.0 mi Variable 2.3 mph - N/A   Unknown
11:00 AM 52 °F - 48 °F 83% 30.26 in 5 mi SW 4.5 mph - -   Mist
11:00 AM 51.8 °F - 48.2 °F 88% 30.24 in 5.0 mi Variable 2.3 mph - N/A   Unknown
11:30 AM 51.8 °F - 48.2 °F 88% 30.24 in 5.0 mi SSW 5.8 mph - N/A   Unknown
12:00 PM 54 °F - 49 °F 79% 30.24 in 6 mi SSW 4.5 mph - -   Mist
12:00 PM 53.6 °F - 50.0 °F 88% 30.21 in 5.6 mi Variable 3.5 mph - N/A   Unknown
12:30 PM 55.4 °F - 48.2 °F 77% 30.21 in - Variable 2.3 mph - N/A   Clear
1:00 PM 57 °F - 49 °F 68% 30.22 in 7 mi SSW 4.5 mph - -   Scattered Clouds
1:00 PM 57.2 °F - 50.0 °F 77% 30.21 in - Variable 2.3 mph - N/A   Clear
1:30 PM 57.2 °F - 48.2 °F 72% 30.21 in - South 3.5 mph - N/A   Clear
2:00 PM 59 °F - 49 °F 62% 30.21 in 9 mi South 4.5 mph - -   Scattered Clouds
2:00 PM 59.0 °F - 48.2 °F 67% 30.21 in - SSW 4.6 mph - N/A   Clear
2:30 PM 59.0 °F - 48.2 °F 67% 30.21 in - Variable 2.3 mph - N/A   Clear
3:00 PM 57 °F - 50 °F 72% 30.20 in 8 mi ESE 4.5 mph - -   Mostly Cloudy
3:00 PM 57.2 °F - 50.0 °F 77% 30.21 in - ESE 4.6 mph - N/A   Clear
3:30 PM 55.4 °F - 50.0 °F 82% 30.21 in - ESE 4.6 mph - N/A   Clear
4:00 PM 55 °F - 50 °F 78% 30.21 in 7 mi SE 6.7 mph - -   Partly Cloudy
4:00 PM 55.4 °F - 50.0 °F 82% 30.18 in - SE 5.8 mph - N/A   Clear
4:30 PM 55.4 °F - 50.0 °F 82% 30.18 in - SE 6.9 mph - N/A   Clear
5:00 PM 53 °F - 48 °F 79% 30.21 in 7 mi SE 6.7 mph - -   Partly Cloudy
5:00 PM 53.6 °F - 48.2 °F 82% 30.18 in - SE 5.8 mph - N/A   Clear
5:30 PM 51.8 °F - 48.2 °F 88% 30.21 in - North 3.5 mph - N/A   Clear
6:00 PM 50 °F - 48 °F 90% 30.22 in 4 mi NNW 4.5 mph - -   Mist
6:00 PM 50.0 °F - 48.2 °F 94% 30.21 in 4.3 mi North 4.6 mph - N/A   Unknown
6:14 PM 48.2 °F - 46.4 °F 93% 30.21 in 2.8 mi Variable 2.3 mph - N/A   Mist
6:30 PM 48.2 °F - 46.4 °F 93% 30.21 in 2.5 mi NNW 3.5 mph - N/A Fog Mist
6:47 PM 46.4 °F - 46.4 °F 100% 30.21 in 1.6 mi Variable 2.3 mph - N/A Fog Mist
7:00 PM 47 °F - 46 °F 93% 30.23 in 1 mi North 2.2 mph - - Fog Patches of Fog
7:00 PM 46.4 °F - 46.4 °F 100% 30.21 in 1.6 mi Variable 2.3 mph - N/A Fog Mist
7:08 PM 46.4 °F - 46.4 °F 100% 30.21 in 0.9 mi Variable 1.2 mph - N/A Fog Patches of Fog
7:30 PM 46.4 °F - 44.6 °F 93% 30.18 in 0.3 mi Calm Calm - N/A   Scattered Clouds
7:32 PM 46.4 °F - 44.6 °F 93% 30.18 in 0.2 mi Variable 1.2 mph - N/A Fog Fog
7:34 PM 46.4 °F - 44.6 °F 93% 30.18 in 0.2 mi Variable 1.2 mph - N/A Fog Fog
7:47 PM 44.6 °F - 44.6 °F 100% 30.18 in 0.2 mi West 1.2 mph - N/A Fog Fog
8:00 PM 45 °F - 44 °F 97% 30.23 in 0 mi WNW 2.2 mph - - Fog Partial Fog
8:00 PM 44.6 °F - 44.6 °F 100% 30.18 in 0.2 mi West 1.2 mph - N/A Fog Fog
8:03 PM 44.6 °F - 44.6 °F 100% 30.18 in 0.2 mi West 2.3 mph - N/A Fog Fog
8:30 PM 44.6 °F - 44.6 °F 100% 30.18 in 0.2 mi West 1.2 mph - N/A Fog Fog
9:00 PM 44 °F - 44 °F 98% 30.23 in 0 mi WSW 2.2 mph - - Fog Partial Fog
9:00 PM 44.6 °F - 42.8 °F 93% 30.18 in 0.2 mi SW 1.2 mph - N/A Fog Fog
9:30 PM 42.8 °F 41.1 °F 42.8 °F 100% 30.18 in 0.2 mi WSW 3.5 mph - N/A Fog Fog
10:00 PM 44 °F - 43 °F 95% 30.23 in 0 mi WSW 2.2 mph - - Fog Partial Fog
10:00 PM 44.6 °F - 42.8 °F 93% 30.18 in 0.2 mi SW 2.3 mph - N/A Fog Fog
10:30 PM 44.6 °F - 42.8 °F 93% 30.18 in 0.2 mi SSW 2.3 mph - N/A Fog Fog
10:42 PM 44.6 °F - 42.8 °F 93% 30.18 in 0.7 mi SW 1.2 mph - N/A   Partly Cloudy
11:00 PM 44 °F - 44 °F 97% 30.22 in 2 mi SSW 4.5 mph - - Fog Shallow Fog
11:00 PM 44.6 °F - 44.6 °F 100% 30.18 in 2.5 mi WSW 2.3 mph - N/A Fog Mist
11:21 PM 42.8 °F - 41.0 °F 93% 30.18 in 1.4 mi West 2.3 mph - N/A   Partly Cloudy
11:30 PM 42.8 °F - 41.0 °F 93% 30.18 in 1.1 mi West 1.2 mph - N/A Fog Scattered Clouds
11:45 PM 42.8 °F 41.1 °F 41.0 °F 93% 30.18 in 0.4 mi WSW 3.5 mph - N/A Fog Fog